Liberia, Costa Rica

7:43 AM CST on July 23, 2017 (GMT -0600)
Daniel Oduber Quiros International

Weather History for MRLB - May, 2012

Change the Weather History Date:

Tuesday, May 8, 2012

  Actual Average Record
Temperature  
Mean Temperature 80 °F -  
Max Temperature 89 °F 89 °F 97 °F (2013)
Min Temperature 72 °F 76 °F 68 °F (2013)
Cooling Degree Days 16    
Growing Degree Days 30 (Base 50)    
Moisture  
Dew Point 72 °F    
Average Humidity 75    
Maximum Humidity 94    
Minimum Humidity 51    
Precipitation  
Precipitation 0.00 in - - ()
Sea Level Pressure  
Sea Level Pressure 29.82 in    
Wind  
Wind Speed 6 mph ()    
Max Wind Speed 16 mph    
Max Gust Speed -    
Visibility 7.2 miles    
Events Rain , Thunderstorm    
Averages and records for this station are not official NWS values.
T = Trace of Precipitation, MM = Missing Value Source: Averaged Metar Reports

Daily Weather History Graph

Daily Weather History Graph

Search for Another Location

Airport or City:

Trip Planner

Search our weather history database for the weather conditions in past years. The results will help you decide how hot, cold, wet, or windy it might be!

Date:

Astronomy

May. 08, 2012 Rise Set
Actual Time 5:21 AM CST 5:55 PM CST
Civil Twilight 4:59 AM CST 6:17 PM CST
Nautical Twilight 4:33 AM CST 6:43 PM CST
Astronomical Twilight 4:07 AM CST 7:10 PM CST
Moon 8:52 PM CST (5/8) 7:44 AM CST (5/8)
Length of Visible Light 13h 18m
Length of Day
12h 33m
Waning Gibbous, 90% of the Moon is Illuminated
May 8
Waning Gibbous
May 12
Last Quarter
May 20
New
May 28
First Quarter
Jun 4
Full

Hourly Weather History & Observations

Time (CST) Temp. Heat Index Dew Point Humidity Pressure Visibility Wind Dir Wind Speed Gust Speed Precip Events Conditions
6:00 AM 73.4 °F - 71.6 °F 94% 29.81 in - East 4.6 mph - N/A   Clear
7:00 AM 77.0 °F - 71.6 °F 83% 29.84 in - North 3.5 mph - N/A   Clear
8:00 AM 82.4 °F 87.2 °F 71.6 °F 70% 29.86 in - East 2.3 mph - N/A   Clear
9:00 AM 83 °F - 74 °F 69% 29.83 in 12 mi South 4.6 mph - -   Overcast
9:00 AM 82.4 °F 89.5 °F 75.2 °F 79% 29.87 in 6.2 mi South 4.6 mph - N/A   Overcast
10:00 AM 86.0 °F 91.8 °F 71.6 °F 62% 29.88 in 6.2 mi SW 5.8 mph - N/A   Overcast
11:00 AM 87.8 °F 93.8 °F 71.6 °F 58% 29.87 in 6.2 mi SSW 5.8 mph - N/A   Overcast
12:00 PM 87 °F - 71 °F 51% 29.84 in 12 mi SW 6.9 mph - -   Overcast
12:00 PM 87.8 °F 93.8 °F 71.6 °F 58% 29.84 in 6.2 mi SW 6.9 mph - N/A   Mostly Cloudy
1:00 PM 89.6 °F 96.2 °F 71.6 °F 55% 29.82 in 6.2 mi SSW 10.4 mph - N/A   Scattered Clouds
2:00 PM 80.6 °F 84.6 °F 71.6 °F 74% 29.83 in 6.2 mi NE 16.1 mph - N/A Rain , Thunderstorm Light Thunderstorms and Rain
2:10 PM 77.0 °F - 71.6 °F 83% 29.82 in 0.6 mi NE 16.1 mph - N/A Rain , Thunderstorm Light Thunderstorms and Rain
2:20 PM 77.0 °F - 71.6 °F 83% 29.80 in 4.3 mi NE 15.0 mph - N/A Rain Light Rain
3:00 PM 77 °F - 71 °F 75% 29.80 in 12 mi WNW 11.2 mph - - Rain Light Rain
3:00 PM 77.0 °F - 69.8 °F 78% 29.78 in 6.2 mi WNW 5.8 mph - N/A   Drizzle
4:00 PM 78.8 °F - 73.4 °F 83% 29.77 in 6.2 mi NNE 6.9 mph - N/A   Mostly Cloudy
5:00 PM 78.8 °F - 73.4 °F 83% 29.78 in 6.2 mi NNE 4.6 mph - N/A   Mostly Cloudy
6:00 PM 78 °F - 73 °F 80% 29.75 in 12 mi North 8.9 mph - -   Overcast
6:00 PM 77.0 °F - 73.4 °F 89% 29.80 in - North 4.6 mph - N/A   Clear
7:00 PM 77.0 °F - 73.4 °F 89% 29.82 in - North 4.6 mph - N/A   Clear
8:00 PM 77.0 °F - 73.4 °F 89% 29.83 in - Calm Calm - N/A   Clear